Location: ČR
(50.0000°N, 15.0000°E)
Time: 13:53:44
(UTC+00:00)

Vanguard 1 Rocket - All Passes

Search period start: 25 October 2021 00:00
Search period end: 04 November 2021 00:00
Orbit: 650 x 4225 km, 34.3° (Epoch: 24 October)

Date Brightness Start Highest point End Pass type
(mag) Time Alt. Az. Time Alt. Az. Time Alt. Az.
25 Oct - 08:13:17 10° S 08:23:41 15° SE 08:32:01 10° ESE daylight
25 Oct - 10:35:16 10° SW 10:50:59 30° SSE 11:00:41 10° ESE daylight
25 Oct - 13:04:18 10° WSW 13:17:14 34° S 13:24:39 10° SE daylight
25 Oct - 15:34:54 10° WSW 15:41:31 20° SSW 15:46:09 10° SSE daylight
26 Oct - 09:22:29 10° SSW 09:38:29 26° SSE 09:49:13 10° ESE daylight
26 Oct - 11:49:59 10° SW 12:05:30 36° S 12:14:24 10° ESE daylight
26 Oct - 14:20:30 10° WSW 14:30:49 29° SSW 14:37:05 10° SE daylight
27 Oct - 08:11:12 10° S 08:25:45 21° SSE 08:36:39 10° ESE daylight
27 Oct - 10:35:53 10° SW 10:53:18 35° SSE 11:03:43 10° ESE daylight
27 Oct - 13:05:57 10° WSW 13:19:37 36° S 13:27:22 10° SE daylight
27 Oct - 15:37:26 10° WSW 15:43:43 18° SW 15:48:14 10° S daylight
28 Oct - 07:02:47 10° SSE 07:13:01 14° SE 07:21:43 10° ESE daylight
28 Oct - 09:22:28 10° SSW 09:40:39 31° SSE 09:52:27 10° ESE daylight
28 Oct - 11:51:16 10° WSW 12:07:51 39° S 12:17:12 10° ESE daylight
28 Oct - 14:22:33 10° WSW 14:33:05 28° SSW 14:39:33 10° SSE daylight
29 Oct - 08:10:17 10° SSW 08:27:46 26° SSE 08:40:22 10° ESE daylight
29 Oct - 10:36:46 10° SW 10:55:34 39° S 11:06:36 10° ESE daylight
29 Oct - 13:07:41 10° WSW 13:21:55 36° SSW 13:30:00 10° SE daylight
29 Oct - 15:40:11 10° WSW 15:45:47 15° SW 15:50:01 10° S daylight
30 Oct - 07:00:02 10° S 07:14:49 20° SE 07:26:48 10° ESE daylight
30 Oct - 09:22:53 10° SW 09:42:47 36° SSE 09:55:28 10° ESE daylight
30 Oct - 11:52:42 10° WSW 12:10:09 41° S 12:19:55 10° ESE daylight
30 Oct - 14:24:41 10° W 14:35:15 26° SSW 14:41:51 10° SSE daylight
31 Oct - 05:54:01 10° SSE 06:02:04 12° SE 06:09:29 10° ESE daylight
31 Oct - 08:10:03 10° SSW 08:29:42 31° SSE 08:43:37 10° E daylight
31 Oct - 10:37:53 10° WSW 10:57:46 43° S 11:09:22 10° ESE daylight
31 Oct - 13:09:30 10° WSW 13:24:08 35° SSW 13:32:31 10° SE daylight
31 Oct - 15:43:23 10° WSW 15:47:44 13° SW 15:51:14 10° SSW daylight
01 Nov - 06:58:47 10° S 07:16:33 25° SE 07:30:42 10° E daylight
01 Nov - 09:23:37 10° SW 09:44:51 41° SSE 09:58:19 10° ESE daylight
01 Nov - 11:54:15 10° WSW 12:12:22 42° S 12:22:32 10° SE daylight
01 Nov - 14:26:55 10° W 14:37:17 23° SW 14:43:57 10° SSE daylight
02 Nov - 05:50:00 10° SSE 06:03:37 17° SE 06:15:41 10° ESE daylight
02 Nov - 08:10:19 10° SSW 08:31:35 36° SSE 08:46:37 10° E daylight
02 Nov - 10:39:10 10° WSW 10:59:55 45° S 11:12:03 10° ESE daylight
02 Nov - 13:11:22 10° W 13:26:14 34° SSW 13:34:54 10° SSE daylight
02 Nov - 15:48:08 10° WSW 15:49:32 10° SW 15:50:50 10° SW daylight
03 Nov - 06:58:22 10° SSW 07:18:14 30° SSE 07:34:01 10° E daylight
03 Nov - 09:24:37 10° SW 09:46:53 44° S 10:01:02 10° ESE daylight
03 Nov - 11:55:53 10° WSW 12:14:29 42° SSW 12:25:04 10° SE daylight
03 Nov - 14:29:19 10° W 14:39:10 21° SW 14:45:49 10° S daylight
